Tracking 29932 objects as of 4-Dec-2024
HD Live streaming from Space Station
objects crossing your sky now

STARLINK-6311

Track STARLINK-6311 now!
10-day predictions
STARLINK-6311 is classified as:


NORAD ID: 56537
Int'l Code: 2023-065AL
Perigee: 565.4 km
Apogee: 567.1 km
Inclination: 43.0 °
Period: 95.8 minutes
Semi major axis: 6937 km
RCS: Unknown
Launch date: May 14, 2023
Source: United States (US)
Launch site: AIR FORCE EASTERN TEST RANGE (AFETR)
Your satellite tracking list
Your tracking list is empty




NASA's NSSDC Master Catalog

Two Line Element Set (TLE):
1 56537U 23065AL  24338.33582850  .00000307  00000-0  37806-4 0  9994
2 56537  43.0032 210.3532 0001202 273.6475  86.4230 15.02536408 87074
Source of the keplerian elements: AFSPC